CZ-6A DEB, 54392

Orbit data source: Space-Track

CZ-6A DEB, 54392 is space debris in SSO originally from a launch on Fri, 11 Nov 2022 UTC launched from the Taiyaun Space Center, China (TSC). Debris objects in space refer to the collection of defunct objects orbiting the Earth. Examples of debris include non-operational satellites, rocket bodies, and fragments generated from explosions, collisions, or faulty payload assembly.

Loading next visibility...
Identifier
54392, 2022-151DQ
Orbit
SSO
Country
Flag of CNCN / PRC
Related business
Manufacturer
SAST
Mission
Spacecraft
Bus & Motor
Unknown
Mass
Unknown
Launch date (UTC)
2022-11-11 (4 years ago)
Launch vehicle
Unknown
Launch site
Taiyaun Space Center, China (TSC)
Object type
Payload
Rocket body
Debris
Shape & HBR
Unknown shape, 0.2 m
Radar Cross Section
Medium (>0.1 m² and <1 m²)

Expand to show TLE details & history
Last TLE update: 2 days ago

TLE from 2 days ago
0 CZ-6A DEB
1 54392U 22151DQ  26171.02431770  .00000983  00000-0  32733-3 0  9996
2 54392  98.5873 192.9662 0090051  16.8996 343.5157 14.37617559188401
Epoch: 2026-06-20T00:35Z
TLE epoch observation values (Epoch: 2026-06-20T00:35:01.049Z)
Latitude
0.00002°
Longitude
-84.03305°
Altitude
707.666 km
Speed
7.534 km/s
True Right ascension
12h 51m 51s
True Declination
0° 00' 00"
Sunlit
Object was in daylight at epoch
Visualization orbit readout
Latitude
Unknown
Longitude
Unknown
Altitude
Unknown
Speed
Unknown
Apparent Right ascension
Unknown
Apparent Declination
Unknown
Sunlit
N/A
Visualization observer readout
Local Sidereal Time
21:31:29
Azimuth
Unknown
Elevation
Unknown
Doppler factor
Unknown
Orbital elements
Apogee altitude
827.821 km
Perigee altitude
699.199 km
Semi-major axis
7,141.647 km
Eccentricity
0.00901
Inclination
98.5873°
RAAN
192.9662°
Arg. of periapsis
16.8996°
True anomaly
343.2197°
Mean anomaly
343.5157°
Eccentric anomaly
343.36802°
Mean motion
3.59621 °/min
Orbital period
100.11 mins
BSTAR
0.00032733
Loading maneuver chart data...
Computing Atmospheric mass density...
Loading historical data...
Loading historical data...
Loading historical data...
Loading historical data...
Loading historical data...
Loading historical data...
Loading historical data...

Documentation

Showing up to 5 results
|